www.pogodaiklimat.ru

АРХИВ ПОГОДЫ в Сиэтле

Время (UTC), дата Ветер
(напр.,м/с)
 
Видим.   Явления Облачность Т
(С)
Тd
(С)
f
(%)
Тe
(С)
Тes
(С)
Комфортность

P
(гПа)

Po
(гПа)
Тmin
(С)
Tmax
(С)
R
(мм)
SD
(см)
05:53 21.05 СВ  16 км    10/0 2700 м
[средняя] 
+11.1  +6.7  74  +9  +9    1006.9  990.9         
06:53 21.05 СВ  16 км    10/8 1800 м
[средняя] 
+11.1  +6.7  74  +9  +9    1006.6  990.6         
07:53 21.05 С  16 км    10/2 1800 м
[средняя] 
+10.6  +7.2  79  +8  +8    1006.2  990.2         
08:53 21.05 СВ  16 км  слабый дождь  10/10 1200 м  +10.6  +7.8  83  +9  +9    1006.2  990.2         
09:53 21.05 С  16 км  слабый дождь  10/10 1500 м  +10.6  +7.8  83  +9  +9    1006.1  989.9         
10:53 21.05 СВ  16 км  слабый дождь  10/10 1500 м  +10.6  +8.3  86  +8  +8    1006.0  989.9  +10.0  +11.1  0.5   
11:31 21.05 СВ  16 км    10/8 150 м
[средняя] 
+10.6  +8.3  86  +8  +8      990.2         
11:53 21.05 СВ  16 км    10/8 150 м
[средняя] 
+10.6  +8.3  86  +8  +8    1006.4  990.2         
12:53 21.05 С  16 км    10/8 150 м
[средняя] 
+10.6  +8.9  89  +9  +9    1006.9  990.9         
13:53 21.05 СВ  16 км    8/5 150 м
[средняя] 
+11.1  +8.3  83  +8  +9    1006.8  990.9         
14:53 21.05 С  16 км    8/2 210 м
[средняя верхняя] 
+12.2  +8.3  77  +10  +11    1007.2  991.2         
15:49 21.05 С  16 км    8/8 210 м
[средняя] 
+13.0  +8.0  72  +11  +12      991.2         
15:53 21.05 С  16 км    8/8 210 м
[средняя] 
+13.3  +8.3  72  +12  +13    1007.5  991.6         
16:53 21.05 С  16 км    8/8 360 м
[средняя] 
+13.3  +8.9  75  +11  +13    1007.9  991.9  +10.6  +13.9     
17:41 21.05 СЗ  16 км    8/8 330 м
[средняя] 
+14.4  +8.3  67  +13  +15      991.9         
17:53 21.05 СЗ  16 км    8/8 330 м
[средняя] 
+13.9  +8.3  69  +13  +15    1008.0  991.9         
18:53 21.05 С  16 км    8/8 450 м
[средняя] 
+15.0  +8.3  64  +14  +16    1008.4  992.2         
19:53 21.05 С  16 км    8/8 600 м
[средняя] 
+16.1  +8.9  62  +15  +17    1008.7  992.6         
20:53 21.05 С  16 км    8/8 660 м  +15.0  +8.3  64  +14  +15    1009.1  992.9         
21:53 21.05 С  16 км    8/8 780 м
[средняя] 
+15.6  +8.3  62  +14  +15    1009.1  992.9         
22:15 21.05 СВ  16 км    8/5 840 м
[средняя] 
+15.6  +8.9  64  +15  +17      992.9         
22:53 21.05 СВ  16 км    8/5 840 м
[средняя] 
+16.1  +8.9  62  +16  +18    1009.3  993.2  +13.3  +16.7     
23:53 21.05 нст  16 км    8/2 900 м
[средняя] 
+16.1  +8.9  62  +16  +18    1009.7  993.6         
00:53 22.05 С  16 км    8/2 900 м
[средняя] 
+16.1  +8.9  62  +15  +16    1010.1  993.9         
01:53 22.05 СВ  16 км    8/2 900 м
[средняя] 
+15.6  +9.4  67  +15  +16    1010.8  994.6         
02:53 22.05 СВ  16 км    8/2 1200 м
[средняя] 
+15.0  +8.9  67  +15  +15    1011.4  995.2         
03:53 22.05   16 км    8/0 3000 м
[средняя] 
+14.4  +9.4  72  +14  +14    1012.3  996.2         
04:53 22.05   16 км    10/0 3000 м
[средняя] 
+14.4  +9.4  72  +14  +14    1012.7  996.6  +14.4  +16.1     
05:53 22.05 Ю  16 км    8/0 3000 м
[средняя] 
+13.3  +8.9  75  +13  +13    1013.0  996.9         
06:53 22.05 ЮВ  16 км    5/0 3000 м
[средняя] 
+12.8  +8.9  77  +12  +12    1013.1  996.9         
07:53 22.05 ЮВ  16 км    2/0 3000 м
[средняя] 
+12.2  +8.9  80  +11  +11    1013.5  997.2         
08:53 22.05 ЮВ  16 км    5/0 3000 м
[средняя] 
+11.1  +8.9  86  +9  +9    1014.1  997.9         
09:53 22.05 ЮВ  16 км    8/0 3000 м
[средняя] 
+11.7  +8.9  83  +10  +10    1014.6  998.2         
10:53 22.05 ЮВ  16 км    8/0 3000 м
[средняя] 
+11.7  +8.9  83  +10  +10    1014.9  998.6  +10.6  +14.4     
11:53 22.05 Ю  16 км    5/0 3000 м
[средняя] 
+10.6  +7.8  83  +10  +10    1015.2  998.9         
12:53 22.05   16 км    8/0 3000 м
[средняя] 
+11.7  +8.9  83  +11  +11    1015.7  999.6         
13:53 22.05 Ю  16 км    8/8 600 м
[средняя] 
+12.8  +9.4  80  +12  +12    1015.8  999.6         
14:53 22.05   16 км    5/2 600 м
[средняя] 
+14.4  +10.6  78  +14  +17    1016.0  999.9         
15:53 22.05   16 км    8/8 600 м
[средняя] 
+16.1  +10.0  67  +16  +18    1016.1  999.9         
16:53 22.05 З  16 км    8/8 750 м
[средняя] 
+17.2  +10.0  63  +17  +19    1016.2  999.9  +10.6  +17.8     
17:53 22.05 нст  16 км    8/5 840 м
[средняя] 
+18.3  +10.6  61  +19  +23    1016.2  999.9         
18:53 22.05 ЮЗ  16 км    5/5 960 м  +19.4  +10.6  57  +21  +27  комфорт  1016.1  999.9         
19:53 22.05 СЗ  16 км    5/5 1020 м
[верхняя] 
+21.1  +10.6  51  +23  +29  комфорт  1016.2  999.9         
20:53 22.05 СЗ  16 км    5/5 1050 м
[верхняя] 
+22.8  +11.1  48  +25  +29  комфорт  1016.1  999.9         
21:53 22.05 СЗ  16 км    5/2 1050 м
[средняя верхняя] 
+23.3  +10.6  45  +25  +30  комфорт  1015.8  999.9         
22:53 22.05 СЗ  16 км    5/2 1200 м
[средняя верхняя] 
+23.3  +10.6  45  +25  +30  комфорт  1015.5  999.6  +17.2  +23.3     
23:53 22.05 С  16 км    8/2 1200 м
[средняя верхняя] 
+22.8  +9.4  42  +24  +26  комфорт  1015.7  999.6         
00:53 23.05 З  16 км    5/2 1200 м
[средняя верхняя] 
+22.8  +9.4  42  +24  +27  комфорт  1015.8  999.6         

 

Местоположение метеостанции Seattle-Tacoma International Airport: широта 47.4447 долгота -122.3136 высота над уровнем моря 130 м.

В архиве по умолчанию представлена погода в Сиэтле за последние 1-2 суток. Обновление информации о фактической погоде в базе происходит ежечасно! Архивные данные за месяц целиком и за предыдущие месяцы Вы можете получить, выбрав интересующий диапазон дат из раскрывающегося списка и нажав кнопку "Ввод!".

Внимание! Архив погоды МЕТАР в базе сайта в настоящее время начинается c 1 января 2011 г. Нет смысла пытаться выбрать более раннюю дату.

Внимание! Время в таблицах - всемирное. Для получения местного времени необходимо прибавить поправку, которая в Сиэтле равна -8 ч.

Ветер - указаны скорость ветра в м/с и направление, откуда дует ветер: С - северный, СВ - северо-восточный, В - восточный, ЮВ - юго-восточный, Ю - южный, ЮЗ - юго-западный, З - западный, СЗ - северо-западный.
Видимость - горизонтальная дальность видимости в метрах или километрах. При видимости от 1 до 10 км при отсутствии осадков обычно наблюдается дымка, при ухудшении видимости до 1 км и менее - туман. В сухую погоду видимость может ухудшаться дымом, пылью или мглою.
Атмосферные явления - указаны явления, наблюдавшиеся в указанный момент времени.
Облачность - указаны через наклонную черту верхняя и нижняя облачность в баллах и высота нижней границы облаков в метрах. Внимание: облачность, как и прочие метеорологические величины в США измеряются автоматическими метеостанциями. Указанные значения в баллах носят условный характер и показывают процент времени, в течение которого, в среднем, лазерный луч высотомера отражался от облаков обратно.
T - Температура воздуха - температура, измеренная на высоте 2 м над землей.
Td - Температура точки росы - температура, при понижении до которой содержащийся в воздухе водяной пар достигнет насыщения.
f - Относительная влажность воздуха - влажноcть воздуха, измеренная на высоте 2 м над землей.
Te - Эффективная температура - температура, которую ощущает одетый по сезону человек в тени. Характеристика душности погоды. При расчете учитывается влияние влажности воздуха и скорости ветра на теплоощущения человека.
Tes - Эффективная температура на солнце - температура, которую ощущает человек, с поправкой на солнечный нагрев. Характеристика знойности погоды. Зависит от высоты солнца над горизонтом, облачности и скорости ветра. Ночью, в пасмурную погоду, а также при ветре 12 м/с и более поправка равна нулю.
P - Атмосферное давление - приведенное к уровню моря атмосферное давление.
Po - Атмосферное давление - измеренное на уровне метеостанции атмосферное давление.
Tmin - Минимальная температура - минимум температуры воздуха на высоте 2 м над землей.
Tmax - Максимальная температура - максимум температуры воздуха на высоте 2 м над землей.
R - Количество осадков - Количество выпавших осадков за 3 или 6 часов, мм.
SD - Снежный покров - Высота снежного покрова, см.